Location: ????????
(55.6333°N, 37.7000°E)
Time: 10:22:46
(UTC+00:00)

Cosmos 1758 - Pass Details

Date: 19 May 2025
Orbit: 491 x 512 km, 82.5° (Epoch: 13 June)

Event Time Altitude Azimuth Distance (km) Brightness Sun altitude
Rises 21:41:16 0° 350° (N) 2,646 8.5 -14.3°
Reaches altitude 10° 21:43:27 10° 354° (N) 1,754 7.3 -14.3°
Maximum altitude 21:47:14 57° 74° (ENE) 614 3.6 -14.3°
Enters shadow 21:49:46 20° 149° (SSE) 1,249 4.7 -14.2°
